Retour au catalogue

GOMX-1

GOMX 1

ActifRadio amateurSSO
NORAD 39430·PAYLOAD·🇩🇰 Denmark

Lancé Nov 21, 2013 depuis Dombarovsky

Loading…

Prochains Passages (prochaines 24 heures)

TLE

FraisSource: Space-Track

Époque: Sep 14, 2026, 14:03 UTC

1 39430U 13066Q   26257.58553654  .00001380  00000-0  21164-3 0  9997
2 39430  97.6433  92.4140 0128579 149.5948 211.2798 14.69693358683040

Suivez GOMX-1 en temps réel avec AllMySat

Download on the App Store